FW0983 Weather Reports


time (UTC)temp
F
wind
direction
speed
knots
gust
knots
rain 1hr
in
rain 24hr
in
rain mn
in
humidity
%
barometer
mb
20260505011533 74 171 7.8 13.0 0.00 0.00 0.00 51 1007.3
20260505010032 74 188 7.8 14.8 0.00 0.00 0.00 51 1007.2
20260505004531 75 188 8.7 16.5 0.00 0.00 0.00 50 1007.0
20260505003031 76 166 10.4 18.2 0.00 0.00 0.00 49 1007.0
20260505001533 76 190 8.7 20.0 0.00 0.00 0.00 49 1007.0
20260505000037 77 199 10.4 18.2 0.00 0.00 0.00 48 1007.0
20260504234528 78 194 11.3 19.1 0.00 0.00 0.00 48 1007.0
20260504233028 78 207 12.2 22.6 0.00 0.00 0.00 48 1007.2
20260504231533 78 190 13.0 21.7 0.00 0.00 0.00 48 1007.1
20260504230031 79 219 12.2 19.1 0.00 0.00 0.00 48 1007.2
20260504224532 79 176 12.2 21.7 0.00 0.00 0.00 47 1007.3
20260504223031 79 188 13.9 26.1 0.00 0.00 0.00 47 1007.3
20260504221528 80 215 12.2 24.3 0.00 0.00 0.00 47 1007.6
20260504220028 80 186 10.4 20.9 0.00 0.00 0.00 47 1007.5
20260504214539 80 194 12.2 21.7 0.00 0.00 0.00 47 1007.6
20260504213030 80 227 14.8 24.3 0.00 0.00 0.00 47 1007.7
20260504211530 80 200 12.2 22.6 0.00 0.00 0.00 47 1007.8
20260504210030 80 202 12.2 22.6 0.00 0.00 0.00 47 1008.1
20260504204529 80 207 13.0 24.3 0.00 0.00 0.00 47 1008.3
20260504203030 80 177 12.2 21.7 0.00 0.00 0.00 47 1008.6
20260504201529 80 191 13.0 25.2 0.00 0.00 0.00 47 1008.8
20260504200033 80 216 13.0 25.2 0.00 0.00 0.00 47 1008.9
20260504194528 80 229 15.6 25.2 0.00 0.00 0.00 47 1009.1
20260504193030 80 208 13.9 21.7 0.00 0.00 0.00 47 1009.4
20260504191528 80 225 13.0 20.9 0.00 0.00 0.00 48 1009.3
20260504190027 79 161 14.8 24.3 0.00 0.00 0.00 48 1009.4
20260504184535 80 195 13.0 30.4 0.00 0.00 0.00 49 1009.4
20260504183035 79 197 18.2 26.1 0.00 0.00 0.00 49 1009.7
20260504181528 78 196 14.8 26.9 0.00 0.00 0.00 50 1009.7
20260504180028 78 228 15.6 26.9 0.00 0.00 0.00 50 1010.1
20260504174527 78 206 11.3 20.9 0.00 0.00 0.00 52 1010.1
20260504173030 78 178 14.8 22.6 0.00 0.00 0.00 53 1010.3
20260504171528 77 229 15.6 25.2 0.00 0.00 0.00 53 1010.5
20260504081529 63 182 6.1 11.3 0.00 0.00 0.00 69 1011.1
20260504044528 66 160 7.8 16.5 0.00 0.00 0.00 64 1013.0
20260504043030 66 178 7.8 13.9 0.00 0.00 0.00 64 1013.0
20260504041534 65 184 7.8 12.2 0.00 0.00 0.00 63 1013.1
20260504040030 65 175 7.0 12.2 0.00 0.00 0.00 63 1013.2
20260504034539 65 171 7.8 11.3 0.00 0.00 0.00 62 1013.2
20260504033030 65 155 7.8 12.2 0.00 0.00 0.00 62 1013.2
20260504031528 65 169 6.1 10.4 0.00 0.00 0.00 61 1013.3
20260504030036 66 144 6.1 10.4 0.00 0.00 0.00 60 1013.4
20260504024530 66 150 5.2 9.6 0.00 0.00 0.00 59 1013.4
20260504023027 66 161 6.1 10.4 0.00 0.00 0.00 58 1013.4
20260504021537 67 171 8.7 13.9 0.00 0.00 0.00 58 1013.3
20260504020036 67 182 7.0 10.4 0.00 0.00 0.00 56 1013.2
20260504014527 68 173 7.0 12.2 0.00 0.00 0.00 55 1013.1
20260504013035 69 167 7.0 10.4 0.00 0.00 0.00 54 1013.1